Wind_Speed
43 45 45 42 39 39 38 38 38 36 31 31 35 34 31 28 26 29 33 34 35 36 35 38 39 35 35 37 38 40 40 38 36 33 32 32 32 33 33 34 35 35 35 35 36 39 42 41 39 37 35 35 35 35 36 37 38 38 36 35 34 32 31 32 33 33 32 30 30 30 30 30 30 31 32 32 31 30 29 29 28 27 27 28 29
47 48 48 45 43 41 39 37 37 36 32 31 34 33 31 32 30 31 35 36 36 36 35 39 39 36 35 36 37 38 39 37 36 35 35 35 35 35 36 37 37 36 36 37 41 42 41 38 37 35 34 35 36 37 38 39 39 39 36 35 33 31 31 31 32 32 33 32 31 30 31 31 31 32 32 32 31 31 31 30 30 29 30 30 30
49 50 51 49 45 42 38 35 36 38 36 34 33 32 34 36 35 34 37 39 38 34 34 39 41 39 38 38 37 39 39 39 38 39 40 40 40 39 39 38 37 37 39 42 43 41 38 37 36 34 34 36 38 39 39 40 41 39 37 35 32 30 30 31 31 32 33 32 31 30 30 31 32 32 33 33 32 32 32 31 31 31 31 32 33
49 50 53 51 48 46 40 33 36 41 40 37 35 33 35 36 36 37 39 42 43 38 36 41 44 43 43 42 41 40 41 42 43 44 44 44 44 41 38 38 40 42 43 43 40 38 36 37 36 35 35 37 39 40 40 41 41 40 38 35 32 31 30 30 30 31 30 30 29 28 29 30 32 32 33 33 33 33 33 33 33 33 33 34 34
49 49 51 51 49 49 43 37 38 42 43 41 36 33 34 34 36 40 41 43 46 45 42 43 44 45 47 47 47 45 44 45 46 47 47 46 45 42 40 41 43 43 41 39 37 36 36 37 36 36 37 38 39 40 41 42 41 39 37 35 34 32 30 30 30 29 28 28 27 27 28 29 30 32 32 33 34 33 33 34 34 34 34 33 33
50 49 49 48 47 48 47 42 41 44 46 43 38 34 34 34 36 39 42 44 46 46 46 45 44 45 47 48 49 50 48 45 45 47 48 47 45 43 41 42 41 39 37 36 36 35 36 37 38 39 40 40 40 41 42 42 41 39 37 36 35 34 32 31 31 29 27 26 27 27 28 29 30 31 32 33 34 34 34 34 34 34 33 33 34
51 50 48 46 45 45 46 45 44 47 48 43 38 36 35 35 36 37 39 42 46 48 47 44 44 46 47 47 48 50 47 42 40 41 43 44 43 40 39 39 38 37 36 35 35 36 37 39 40 41 41 40 41 41 42 43 41 39 38 37 37 36 35 33 32 30 28 28 28 27 28 29 30 31 32 33 34 35 35 35 35 35 36 36 37
51 50 48 46 45 43 44 45 46 49 49 43 35 33 34 37 39 38 38 41 46 51 51 46 44 47 47 46 47 48 48 44 41 40 40 39 39 38 38 38 37 36 36 36 37 39 40 41 41 42 41 41 41 42 42 42 40 39 39 38 38 38 37 35 33 32 31 31 31 30 30 30 31 32 34 34 35 36 36 37 37 37 39 40 40
54 52 48 45 45 44 44 45 47 49 48 42 36 32 33 37 40 40 41 41 44 51 54 50 47 48 48 49 51 51 52 51 48 44 41 39 38 38 38 39 38 38 39 40 40 41 42 42 42 42 42 42 42 41 41 40 39 39 40 40 40 40 38 37 36 35 34 34 34 34 33 33 34 35 37 38 38 38 38 40 40 40 42 43 43
54 55 52 47 46 47 47 48 49 50 49 46 41 37 35 37 39 39 41 43 43 47 54 55 54 53 53 53 56 56 55 55 51 46 44 43 42 41 41 41 42 42 43 43 43 43 44 43 42 42 42 42 41 41 41 40 39 40 40 41 42 41 39 39 39 39 38 38 37 37 37 37 38 39 41 42 43 42 42 43 44 44 45 46 47
51 53 55 52 49 49 51 51 51 52 51 48 45 41 39 41 41 40 42 45 45 45 51 56 59 59 58 55 55 54 53 51 49 47 47 46 45 44 44 44 44 44 45 45 45 44 43 42 41 41 42 43 42 41 42 41 41 41 41 42 43 42 41 41 42 42 42 41 40 41 41 42 43 44 45 46 47 47 46 47 48 49 49 49 50
49 49 52 55 54 53 54 54 53 54 52 48 46 44 42 40 39 40 44 47 48 47 49 53 56 57 57 54 52 51 50 50 49 48 47 46 46 48 49 48 46 46 47 46 44 43 42 42 43 43 44 44 43 43 43 42 42 42 43 44 44 43 42 43 44 45 45 44 44 44 45 46 46 48 50 50 50 50 50 50 52 53 52 52 53
47 46 47 51 54 55 56 55 55 55 52 49 48 46 42 38 37 41 45 47 49 50 50 51 53 54 53 52 51 52 52 52 51 50 47 47 49 52 54 53 52 51 50 48 46 45 45 46 46 46 46 45 44 44 44 45 44 43 44 46 46 44 44 45 46 47 47 47 47 48 49 49 50 51 53 54 54 53 53 54 56 56 56 56 56
46 44 44 46 49 52 55 54 54 53 51 49 50 48 45 42 39 42 46 48 50 51 51 51 52 52 51 52 53 54 54 54 55 54 53 52 52 52 53 53 53 52 52 51 50 49 49 49 48 47 47 47 46 45 46 47 46 46 46 47 47 46 47 48 49 50 50 50 50 51 52 52 53 54 56 56 57 57 57 58 59 59 59 58 58
48 46 44 44 46 49 51 53 52 52 50 50 50 49 48 48 47 46 47 49 52 54 52 52 52 51 52 53 54 55 56 56 55 54 54 54 51 50 51 52 53 54 54 53 52 51 51 50 49 49 48 47 47 47 48 49 48 48 48 48 48 49 49 51 53 53 53 52 53 54 55 55 57 58 59 59 60 60 60 61 62 61 60 60 60
52 50 47 46 46 47 50 51 52 51 51 51 51 49 49 49 49 49 49 50 53 55 54 54 54 54 54 55 56 56 57 57 55 54 53 52 52 52 54 55 56 55 55 54 53 51 51 51 51 50 50 49 48 49 50 51 50 49 49 49 50 51 52 54 56 56 56 55 55 56 57 58 60 61 62 62 62 63 64 65 64 63 61 61 62
56 54 52 50 48 48 50 51 51 51 51 51 52 52 52 50 47 47 50 52 53 56 56 56 56 55 55 56 57 58 58 59 58 57 57 56 55 57 58 57 57 57 56 56 56 54 54 53 53 52 51 50 50 50 52 52 52 52 52 52 53 54 55 57 58 58 58 58 58 58 60 61 62 63 64 64 65 66 67 66 64 63 62 63 64
60 58 57 54 51 49 50 51 52 52 53 53 52 51 53 53 50 48 51 53 54 57 59 58 57 56 56 58 59 60 61 61 60 60 61 61 61 62 62 60 59 60 60 61 60 59 58 56 56 56 55 54 53 53 53 54 55 55 56 55 56 56 58 59 60 60 60 61 61 62 63 64 65 65 65 66 68 69 68 66 64 63 64 65 67
63 62 60 58 55 53 52 52 53 55 57 58 56 54 53 54 54 54 55 55 56 59 60 60 59 58 57 58 59 60 62 63 63 63 64 64 65 66 66 64 62 63 64 64 64 62 61 60 60 60 58 57 56 56 56 57 58 59 58 58 58 59 60 61 62 63 63 64 64 65 66 67 67 67 68 70 71 70 68 67 66 66 67 69 71
66 65 65 64 62 58 56 54 55 57 60 62 62 61 58 57 57 58 59 58 59 60 59 59 60 59 58 59 60 61 62 64 64 64 65 66 66 67 67 66 66 67 67 67 66 65 64 64 63 61 59 58 58 58 58 59 60 60 60 60 61 62 63 63 64 65 65 66 67 68 69 69 70 70 72 72 72 71 69 69 69 70 72 74 77
69 69 68 68 67 64 61 58 57 60 64 64 64 64 64 62 60 60 61 62 62 62 60 59 59 59 58 59 61 63 63 64 65 65 65 65 66 68 69 69 69 70 70 70 69 68 67 65 64 62 61 59 59 59 59 60 60 61 61 62 63 64 65 65 66 67 68 69 70 71 71 71 72 74 74 73 72 71 71 71 72 74 76 79 81
71 70 70 71 71 69 67 64 61 61 64 67 66 66 67 66 63 62 63 64 65 66 65 64 63 64 63 64 65 66 65 65 66 66 66 65 66 67 68 68 68 68 68 68 68 67 66 66 65 64 62 61 60 60 60 60 61 62 63 64 66 67 67 68 68 70 71 72 73 73 73 74 76 76 75 74 73 73 74 75 77 79 81 83 84
69 69 69 70 71 71 71 69 66 63 63 66 68 69 70 67 64 62 63 65 66 66 66 65 66 67 68 68 69 69 68 67 67 67 67 66 66 66 65 65 64 64 64 65 65 65 66 66 66 65 64 62 61 61 61 62 63 64 66 67 69 69 70 71 72 73 73 74 75 76 77 78 78 77 76 76 76 78 79 81 82 84 85 87 88
66 66 66 67 69 70 70 71 69 66 64 66 68 70 69 67 64 63 63 65 65 64 63 64 65 66 66 67 68 68 67 66 65 65 65 65 64 64 64 63 63 64 64 65 64 64 65 65 65 64 64 64 63 63 64 65 66 68 69 71 72 73 73 74 74 75 75 77 78 79 79 79 79 79 79 80 81 82 84 85 86 87 89 91 93
63 64 64 64 65 66 67 69 70 69 68 68 69 71 72 71 71 69 68 68 67 65 63 62 61 60 60 61 65 67 66 65 65 66 66 66 66 65 65 65 66 67 67 67 66 66 67 67 68 68 69 69 69 69 70 71 73 74 75 75 75 76 76 77 77 77 78 79 79 80 80 80 81 82 83 84 85 86 87 88 89 90 92 94 96
61 62 62 62 62 62 63 65 67 69 69 71 72 73 75 77 77 77 76 75 74 73 71 68 65 62 61 61 64 66 66 66 67 68 69 71 71 72 73 74 74 74 74 74 75 75 76 78 79 80 81 81 80 80 79 79 79 78 78 77 78 78 78 78 79 79 80 80 81 81 82 83 84 84 85 87 88 89 90 91 92 94 96 97 99
60 61 61 61 60 60 61 62 65 68 70 73 74 75 75 76 77 78 79 79 79 79 79 77 74 70 67 67 68 67 66 66 68 69 69 70 71 73 74 76 76 77 77 78 79 80 80 81 81 82 82 82 82 82 81 80 79 78 78 78 79 80 80 80 81 81 82 83 84 84 85 85 86 87 88 89 90 92 93 94 96 98 99 101 102
60 60 61 62 61 60 60 62 64 67 71 74 75 76 76 76 77 78 80 81 81 81 81 80 77 74 71 70 71 70 68 67 68 69 70 70 70 70 71 71 73 74 75 75 76 77 78 78 77 76 76 76 78 79 81 80 80 79 80 81 82 82 82 83 84 85 85 86 86 87 87 88 89 90 91 92 94 95 96 97 99 100 102 103 105
60 60 61 63 63 62 61 62 64 67 70 74 76 77 77 77 79 80 81 82 82 82 82 82 80 76 74 73 74 74 73 72 72 73 73 74 73 73 72 72 72 73 74 74 75 76 77 77 76 75 76 77 79 81 82 81 81 82 83 84 85 85 86 86 87 88 88 89 89 90 91 92 93 94 95 96 97 98 100 101 102 103 105 106 108
60 60 62 64 64 64 63 64 64 66 69 73 76 77 78 79 80 82 84 84 84 83 83 84 83 81 79 78 78 78 78 78 78 78 78 78 78 77 77 77 77 78 78 78 78 77 78 78 78 78 80 81 82 83 83 83 84 85 86 87 88 89 89 90 90 90 91 92 93 94 95 95 96 98 99 100 101 102 103 104 105 106 108 110 111
61 61 62 65 66 66 66 66 66 67 68 71 74 76 78 80 82 83 85 86 86 85 83 83 85 86 85 83 82 82 82 82 83 83 82 83 82 82 82 82 82 82 82 81 81 80 80 80 81 82 83 84 85 86 86 87 88 89 90 91 92 92 92 92 93 93 94 95 96 97 98 99 100 101 102 103 104 105 106 107 108 110 111 113 114
63 63 64 66 68 69 69 68 68 69 69 70 73 75 77 79 82 84 86 87 88 87 85 83 83 85 88 89 88 87 86 85 85 85 85 85 85 85 85 85 85 85 85 85 84 84 84 85 85 87 87 89 90 90 91 92 92 93 94 94 94 94 95 95 96 97 97 98 99 100 101 102 104 105 106 106 107 108 109 110 112 113 114 116 118
66 66 66 66 69 71 72 72 71 71 71 71 73 75 77 79 81 84 86 88 89 88 87 85 84 84 87 90 92 92 91 89 88 88 87 86 86 86 86 86 86 86 87 87 88 88 88 89 89 91 92 92 93 94 94 95 95 96 96 96 96 97 98 98 99 100 101 102 103 104 105 106 107 108 108 109 110 111 113 114 115 117 118 120 123
69 69 69 68 69 72 75 76 75 75 75 75 75 76 78 80 82 83 86 89 90 90 89 89 88 87 89 91 92 93 94 93 92 91 90 89 88 87 87 87 87 87 88 89 89 90 90 91 92 93 94 95 95 96 96 97 97 98 98 99 99 100 101 102 103 103 105 106 107 108 109 109 110 111 112 113 114 115 116 118 119 121 123 124 126
69 70 71 71 71 73 75 78 79 79 78 78 78 79 80 81 82 84 85 88 91 92 92 91 91 91 92 92 93 93 94 95 95 94 94 93 92 91 91 91 91 91 91 91 91 91 92 93 94 95 96 97 97 98 99 99 100 100 101 102 103 104 105 105 106 107 108 109 110 111 112 112 113 114 115 116 117 118 120 122 123 125 126 128 129
69 70 71 72 72 74 75 78 80 82 83 82 81 82 82 83 83 85 86 88 91 93 95 95 94 94 94 94 94 94 94 95 95 95 95 95 94 94 94 95 95 96 96 95 95 95 96 96 97 98 99 100 100 101 101 102 102 103 104 105 106 107 108 108 109 110 111 111 112 113 114 115 116 117 118 119 121 122 124 125 127 128 130 130 130
68 69 71 72 73 74 76 78 79 82 85 86 85 84 84 85 86 86 87 89 91 93 96 98 98 98 97 97 96 96 96 96 96 96 96 96 96 96 96 97 97 98 98 98 98 98 99 100 100 101 102 102 103 103 104 104 105 106 107 108 109 109 110 111 111 112 113 114 115 116 117 118 119 120 121 123 124 125 127 128 129 131 131 130 129
66 68 69 71 72 74 76 78 79 80 83 86 88 88 87 87 88 89 90 90 92 94 96 98 101 102 103 102 101 100 99 99 98 98 97 97 98 98 99 99 100 100 100 100 100 101 101 102 103 104 104 105 106 106 107 108 108 109 110 110 111 111 112 113 114 115 116 117 118 119 120 121 122 123 124 126 127 128 129 131 131 131 130 128 126
62 65 67 69 71 73 75 77 79 80 81 84 87 89 90 90 91 91 92 93 93 94 96 98 100 103 105 106 107 107 106 104 103 102 101 100 101 101 101 101 102 102 102 102 102 103 104 105 105 106 107 107 108 109 110 110 111 111 112 112 113 114 115 116 117 118 119 121 122 123 123 124 125 126 127 128 130 131 132 132 131 129 128 126 124
59 61 64 66 68 70 73 75 77 79 81 83 84 87 90 92 93 94 95 95 95 96 97 98 100 102 104 106 108 110 110 110 109 108 106 106 106 106 106 105 105 105 105 105 106 106 107 107 108 109 109 110 111 112 112 113 113 114 115 115 116 117 119 120 121 122 123 124 125 125 126 127 128 128 130 131 132 132 131 130 129 127 126 124 122
56 58 61 63 65 68 71 73 75 77 79 82 84 86 88 91 94 96 97 97 98 98 99 99 100 101 103 105 107 109 110 111 111 111 112 112 112 112 111 111 110 110 110 110 111 111 111 112 112 113 113 114 115 115 116 116 117 118 118 119 120 121 122 123 124 125 126 126 127 127 128 129 130 131 132 132 131 130 129 128 126 125 123 122 119
53 56 58 61 63 65 68 70 73 75 78 80 83 86 87 89 92 94 97 99 100 100 100 101 101 102 103 104 106 108 110 110 111 111 113 114 115 115 115 115 115 115 115 115 116 116 116 116 116 117 117 118 118 119 119 120 120 121 122 123 123 124 125 126 126 127 127 128 128 129 130 131 131 132 131 130 129 128 127 126 125 123 121 118 115
52 53 55 58 60 63 65 67 70 73 76 79 82 84 87 89 90 92 95 98 100 102 103 103 103 103 104 105 106 107 109 110 110 111 112 114 115 115 116 116 117 117 118 118 118 118 119 119 119 120 120 120 121 121 122 123 123 124 124 125 126 126 127 127 127 128 129 129 130 131 131 131 131 130 129 128 127 127 126 124 122 120 116 113 108
51 52 54 55 56 59 62 64 67 70 73 76 79 82 85 88 90 92 93 95 98 101 103 104 105 105 105 106 106 107 108 110 110 111 112 113 115 115 116 116 117 118 118 119 119 120 120 120 121 122 122 122 123 123 124 124 125 125 126 126 127 127 128 128 129 129 130 130 130 130 130 129 128 128 128 127 126 125 123 121 118 114 110 105 100
51 52 52 53 54 56 58 61 64 67 70 72 76 80 83 86 88 91 93 95 96 98 101 103 105 106 107 107 107 107 108 109 110 111 112 114 115 116 117 117 118 118 119 120 120 121 121 122 122 123 123 124 124 125 125 126 126 127 127 127 128 128 129 129 129 129 129 129 128 128 127 127 127 127 126 125 124 122 119 116 111 107 102 97 92
52 52 52 53 54 55 56 58 60 64 67 70 72 76 79 82 86 88 91 93 95 97 99 101 102 104 106 108 109 109 109 110 110 111 112 113 114 116 117 118 119 120 121 121 122 122 123 124 124 125 125 126 126 127 127 127 128 128 128 128 128 128 128 128 128 127 127 127 127 127 127 126 126 125 124 122 120 117 113 108 103 99 94 89 83
50 51 52 52 53 54 54 56 58 61 64 67 69 71 74 77 80 84 87 90 92 95 97 99 101 102 103 105 107 108 110 111 112 112 112 113 113 114 115 116 117 119 120 121 122 123 123 124 125 125 126 126 126 127 127 127 127 127 127 127 126 126 126 126 126 126 126 126 126 126 126 125 124 122 120 117 113 109 105 100 95 90 85 80 75
46 48 50 51 52 53 53 55 57 59 61 63 65 67 69 72 75 78 82 85 89 91 94 97 99 100 102 103 104 106 108 110 111 112 113 114 114 114 115 116 116 117 118 119 120 120 121 122 122 123 123 124 124 124 124 125 125 125 125 125 125 125 125 125 125 126 125 125 125 124 123 121 119 117 113 109 105 101 96 91 86 81 76 72 68
42 44 46 48 50 52 53 53 54 56 58 60 61 63 65 68 71 73 76 80 83 87 90 93 95 98 99 101 102 104 106 108 109 110 112 113 114 115 116 117 117 118 118 119 119 120 121 121 122 122 123 123 123 124 124 124 124 125 125 125 125 125 125 124 124 124 123 123 122 120 118 115 112 109 105 101 97 92 87 82 77 73 69 65 62
39 41 42 44 46 49 51 52 53 54 55 57 58 60 62 64 66 69 71 74 77 81 84 87 91 93 96 97 99 101 103 105 107 108 110 111 113 114 115 116 117 118 119 119 120 121 121 122 122 123 123 123 124 124 124 124 124 124 124 123 123 122 122 121 121 120 119 117 115 113 110 107 104 101 97 92 87 82 78 74 70 66 63 59 57
37 38 39 41 43 45 47 50 51 51 52 53 54 56 59 61 62 64 66 69 72 75 78 81 85 88 91 93 95 97 99 101 103 105 107 109 110 111 112 114 115 116 117 118 119 119 120 121 121 122 122 122 122 123 123 122 122 121 121 120 119 118 117 116 115 114 112 110 108 105 102 99 95 91 87 82 78 74 70 67 64 61 58 55 54
Wind_Direction
217 216 218 216 213 217 222 227 230 229 231 236 238 237 238 242 233 216 214 221 227 234 245 254 257 258 257 258 259 258 259 261 263 263 264 266 267 267 269 274 280 282 282 282 287 293 296 294 291 292 291 289 287 284 284 288 291 292 291 291 294 297 300 301 298 294 292 293 292 292 294 296 298 300 302 305 307 308 306 303 301 298 295 292 290
218 216 219 219 217 219 224 228 227 221 220 230 235 232 230 233 232 223 219 221 224 229 238 247 252 257 261 263 264 264 262 262 263 263 263 264 263 265 272 278 280 280 279 282 288 292 292 289 288 289 287 285 285 284 285 288 291 291 289 289 292 294 298 301 299 295 294 295 295 294 294 296 298 300 303 305 306 305 303 301 299 296 293 292 291
221 219 220 221 219 219 221 226 225 217 216 227 233 229 226 227 228 225 222 224 224 226 236 245 250 257 263 265 268 269 265 259 256 257 258 258 260 267 274 277 275 275 278 283 288 288 286 285 285 286 285 284 284 285 287 289 290 289 287 288 290 292 296 300 299 295 294 295 297 297 297 298 300 302 303 304 304 302 300 298 296 294 292 291 291
223 221 220 221 222 220 218 222 223 217 217 225 229 227 226 225 225 226 226 226 227 227 235 245 252 259 263 265 267 268 268 262 256 254 256 258 262 268 271 270 270 274 279 283 284 283 282 282 283 283 284 284 284 285 287 289 289 286 285 287 288 290 295 299 298 295 294 296 298 300 301 301 302 303 303 303 301 299 297 295 294 293 291 291 291
223 222 221 222 224 222 219 218 219 218 220 225 226 227 228 224 223 227 228 229 231 232 237 244 250 256 261 262 262 262 266 266 260 257 258 261 263 265 265 267 271 276 279 280 279 279 279 279 280 281 283 283 283 285 286 287 286 283 283 284 285 287 292 297 298 295 292 295 299 301 304 304 304 304 304 303 301 299 296 294 293 292 292 292 292
221 222 221 223 224 224 221 218 216 217 221 226 228 230 230 227 227 229 229 232 235 236 238 242 247 252 256 257 257 258 263 267 263 259 259 260 262 264 266 270 273 275 276 275 275 276 276 277 279 281 282 282 282 284 285 286 284 281 281 282 283 284 289 296 300 296 290 293 298 301 303 305 306 307 306 305 302 300 297 295 294 294 294 295 296
219 220 219 220 223 225 224 221 217 217 220 224 229 234 234 233 234 236 235 236 237 238 239 241 244 249 253 254 254 255 260 265 265 263 263 262 263 266 269 271 272 272 273 273 273 274 276 277 279 281 281 280 281 283 284 283 282 280 280 281 281 282 286 295 301 298 290 290 294 297 300 303 306 307 308 308 306 302 298 296 295 296 297 298 299
217 219 218 219 221 224 225 223 218 218 221 222 225 232 237 237 240 243 242 239 238 239 239 239 242 247 252 254 253 254 258 262 265 268 270 268 267 269 270 270 271 272 272 272 273 275 276 277 279 279 279 279 280 282 282 282 280 278 279 280 279 280 285 293 300 298 292 290 291 293 296 301 304 305 306 309 308 304 300 298 298 299 299 300 301
218 219 218 218 221 224 224 222 218 217 218 218 217 223 231 235 239 242 242 241 240 239 240 240 241 244 248 251 252 255 260 263 267 271 273 271 271 271 272 273 273 272 272 273 275 276 276 277 278 278 279 279 280 280 281 279 276 276 278 278 278 281 286 292 296 295 293 292 291 291 293 297 300 301 303 306 307 305 302 301 302 303 303 302 303
221 220 219 218 222 224 224 221 217 215 216 216 216 220 223 227 233 236 240 242 241 239 239 240 242 245 248 252 256 259 261 264 268 272 273 272 271 271 275 277 276 275 275 276 277 277 276 277 278 279 279 279 279 279 279 276 273 274 275 275 276 280 284 289 293 294 293 292 292 291 292 293 295 298 301 304 306 306 304 304 305 306 306 305 304
224 223 222 220 222 225 226 223 219 216 218 220 220 221 224 227 230 235 239 242 242 240 239 241 244 249 251 255 259 261 261 262 266 270 271 270 269 271 276 277 275 275 277 277 277 277 276 277 278 280 280 279 278 279 278 273 271 273 273 272 274 277 282 287 291 293 292 291 291 291 291 292 293 295 298 302 304 305 305 304 306 307 308 307 306
225 226 224 222 223 226 226 225 223 220 221 224 224 223 225 229 234 238 241 243 243 242 241 242 247 252 256 258 258 256 257 260 263 265 266 267 268 272 277 277 274 275 278 277 276 275 276 278 280 281 280 279 278 279 276 272 271 272 272 272 273 276 281 286 289 291 291 289 289 290 290 291 293 295 298 300 302 303 303 303 305 308 309 309 308
224 227 227 225 224 226 226 226 226 224 224 227 228 226 226 229 235 240 242 243 245 245 245 247 250 255 258 260 258 255 255 257 258 260 262 266 269 272 274 273 273 275 277 276 274 274 276 278 279 281 280 279 278 277 274 270 270 271 271 272 274 276 280 284 287 289 289 288 287 289 290 292 294 296 298 300 301 302 302 303 306 308 310 310 309
222 225 228 227 226 226 226 226 225 224 225 228 229 229 227 227 231 238 241 244 247 248 248 250 252 255 258 259 257 255 255 255 256 258 262 267 269 270 269 269 271 274 275 274 274 275 276 277 278 280 280 278 277 277 273 270 270 270 271 272 274 276 279 283 286 287 287 286 287 289 291 293 294 296 297 299 300 301 302 303 306 308 309 309 309
222 223 226 229 229 227 225 224 223 221 222 225 228 230 231 230 231 235 241 245 248 250 251 252 253 254 255 256 256 255 256 256 258 261 263 265 265 266 267 269 271 273 273 273 274 275 276 277 278 279 279 278 277 277 274 271 271 271 271 271 272 275 279 283 285 286 286 286 287 288 290 292 294 295 297 299 300 300 302 304 305 307 309 309 309
226 225 225 226 229 230 226 223 222 220 222 226 228 230 233 234 233 235 239 244 248 251 252 253 254 254 255 255 255 256 256 257 258 259 261 262 263 264 266 269 271 272 271 271 272 273 274 276 276 277 277 277 277 277 275 271 271 271 271 270 271 274 279 282 284 285 286 286 287 288 290 291 293 295 296 298 299 300 302 304 306 308 309 309 308
232 231 229 227 228 229 229 225 222 221 223 227 230 232 234 235 234 236 241 244 247 251 252 253 253 254 254 255 255 256 257 257 256 256 259 262 263 264 266 268 269 269 269 270 271 272 273 274 274 275 275 276 276 277 274 271 269 269 269 269 270 274 279 282 284 285 285 286 287 288 289 291 293 295 296 298 299 300 302 304 306 307 307 306 305
236 235 234 231 228 228 229 227 225 224 224 226 228 231 233 234 232 234 239 242 245 248 249 250 251 252 252 253 253 255 256 256 256 255 257 261 263 264 265 266 266 267 269 270 272 272 272 273 274 275 275 275 276 276 273 271 269 270 270 269 271 275 279 282 283 283 283 284 286 288 291 293 294 295 296 297 298 300 302 304 305 304 303 303 302
240 238 237 235 233 231 230 230 228 227 226 226 227 229 232 234 234 234 237 240 242 245 247 248 250 251 253 253 252 253 253 255 256 256 258 261 263 264 265 265 265 266 268 270 271 271 271 272 273 274 274 274 274 274 273 272 271 271 270 270 272 276 280 281 282 282 282 284 286 289 292 294 295 295 296 296 298 301 304 305 305 304 303 302 301
244 243 241 239 238 236 233 231 230 230 230 230 231 232 235 237 236 236 237 239 242 245 248 248 249 251 253 254 253 253 254 255 257 259 260 261 262 263 263 263 263 265 267 268 269 270 271 271 272 272 272 272 272 272 272 271 271 271 271 271 274 277 280 281 281 281 283 285 288 291 293 295 295 295 296 298 301 303 305 305 304 303 302 301 300
247 246 244 241 239 238 235 233 232 232 234 235 235 236 239 241 240 239 238 238 240 242 244 246 247 248 249 252 253 254 255 257 258 259 261 262 263 263 264 264 264 265 266 267 268 269 270 271 271 270 270 271 271 271 270 270 271 271 272 273 275 277 279 280 280 282 284 287 290 293 294 294 294 295 297 300 303 304 304 303 302 301 300 300 301
248 248 247 245 242 240 239 239 237 235 235 236 237 238 240 243 244 242 239 238 239 241 243 245 246 246 247 249 251 253 254 256 258 259 260 262 264 266 268 269 270 270 270 270 270 270 271 271 271 272 272 272 271 270 270 270 271 272 274 275 276 278 279 280 281 284 287 289 292 293 293 294 295 298 301 302 303 302 301 301 300 300 301 302 302
251 250 249 248 246 243 242 242 241 238 237 236 236 237 239 241 241 240 238 237 238 241 243 245 246 247 248 249 251 252 253 255 257 259 261 262 263 265 268 270 271 272 272 272 272 272 272 273 273 274 274 273 272 272 272 272 273 274 275 276 277 278 280 282 285 287 289 291 292 293 294 296 299 301 302 301 301 300 300 301 301 302 302 303 303
251 250 250 249 248 246 244 243 242 240 238 236 234 234 236 235 233 232 233 234 236 239 242 243 245 247 250 252 253 253 254 256 257 258 260 261 262 264 265 266 267 268 269 270 271 271 272 272 273 273 273 273 273 273 274 275 276 277 277 278 279 280 282 285 288 289 290 291 292 294 297 299 300 300 300 300 300 300 301 301 302 302 302 303 303
248 248 248 247 247 247 245 243 241 239 237 235 234 232 232 231 229 228 229 230 232 234 237 240 243 245 248 252 254 254 254 255 256 256 257 258 259 261 262 262 263 264 266 267 267 268 269 269 270 271 271 273 274 275 276 277 278 279 279 279 280 282 285 287 288 289 291 292 294 296 297 298 299 299 299 300 300 300 301 301 302 302 302 302 303
245 245 245 244 244 244 243 240 238 237 235 233 233 233 233 232 232 231 230 231 231 232 234 236 237 239 242 246 251 253 253 253 254 255 256 257 258 259 259 260 261 262 264 265 266 266 267 269 270 271 273 274 275 276 277 278 279 280 280 281 282 285 287 288 289 291 292 294 295 296 296 297 298 298 299 299 299 300 300 301 301 301 302 303 303
243 243 242 241 240 240 240 237 234 233 232 231 232 233 234 234 234 232 231 232 232 233 234 235 235 236 238 241 245 248 250 250 251 253 255 257 258 260 260 261 262 263 264 266 268 269 270 271 273 274 276 277 277 278 279 280 281 282 283 284 286 287 288 289 290 292 293 294 295 296 296 297 298 298 298 298 299 299 299 300 300 301 302 303 303
243 242 241 240 238 238 237 235 232 230 229 230 230 232 233 233 233 232 232 232 233 234 235 236 236 237 238 240 243 246 247 249 250 252 253 255 257 259 261 262 264 265 265 266 268 270 272 273 274 275 275 276 277 278 281 283 284 285 285 286 287 288 289 290 291 292 293 294 295 295 296 296 297 297 297 298 298 298 299 300 300 301 302 302 302
242 241 240 239 237 236 236 234 232 229 229 229 230 231 232 232 232 232 232 233 234 236 237 237 237 238 239 242 245 247 249 250 252 253 255 256 257 258 259 261 263 264 265 266 268 269 271 272 272 272 272 273 275 277 280 283 284 285 285 286 287 288 289 290 291 292 293 293 294 294 295 295 296 296 297 297 298 298 299 300 301 301 301 302 302
242 240 239 238 236 235 235 235 233 231 230 229 230 231 232 232 232 232 232 232 234 236 238 239 239 239 240 243 246 249 250 251 253 254 256 257 257 258 259 260 261 262 264 266 268 270 270 270 270 270 270 272 274 277 279 280 281 282 283 285 286 287 288 289 290 291 292 292 293 293 294 295 295 296 296 297 298 298 299 299 300 300 301 301 302
243 241 238 237 235 234 234 234 234 233 232 231 231 231 232 233 233 232 232 232 233 235 238 239 240 241 242 244 246 248 250 251 253 254 256 257 259 259 260 261 262 264 265 267 268 269 269 269 269 269 271 272 274 275 277 278 279 280 282 283 285 286 287 288 289 290 291 291 292 292 293 294 294 295 296 296 297 298 298 299 299 300 301 301 302
243 242 240 237 235 234 233 233 234 234 233 233 232 233 233 234 234 233 233 232 233 234 236 238 240 242 243 244 246 247 249 251 252 254 255 257 258 260 261 262 263 265 266 267 268 268 268 268 269 270 271 272 274 275 276 278 279 280 281 283 284 285 286 288 288 289 290 290 291 291 292 293 294 295 295 296 297 297 298 299 299 300 301 301 302
243 242 241 239 236 234 233 233 233 234 234 234 234 234 234 234 235 235 234 233 233 234 235 236 238 240 242 244 245 247 249 250 252 253 254 255 257 258 260 261 263 264 265 266 267 268 268 269 270 271 271 273 274 275 277 278 279 280 281 282 283 285 286 287 287 288 289 289 290 291 292 293 294 294 295 296 297 297 298 299 299 300 301 301 302
244 243 241 240 238 236 234 233 233 234 235 235 235 235 235 235 235 236 236 235 234 234 234 235 237 238 240 243 244 246 247 249 250 252 253 254 255 256 258 259 261 262 263 265 266 267 268 269 269 270 271 273 274 275 276 277 279 280 281 282 283 284 285 286 286 287 288 289 290 291 292 293 294 294 295 296 297 297 298 299 300 300 301 302 303
247 245 244 242 241 239 237 234 233 233 234 235 236 236 236 236 236 236 236 236 236 235 235 235 236 237 239 241 243 245 246 247 249 250 251 253 254 255 256 258 259 260 261 262 264 265 266 267 268 269 270 271 273 274 276 277 278 279 280 281 282 283 284 285 286 287 288 289 290 291 292 293 294 294 295 296 297 297 298 299 299 300 301 302 303
252 250 248 246 244 242 241 238 236 234 234 235 236 237 238 237 237 237 237 237 236 236 236 236 236 237 239 241 243 244 245 247 248 249 250 251 253 254 255 257 258 259 260 261 262 263 264 265 266 267 269 270 272 273 275 276 277 278 279 280 281 282 283 284 286 287 288 289 290 290 291 292 293 294 295 296 296 297 298 298 299 300 301 302 303
253 252 250 249 247 245 244 242 240 237 236 235 235 237 238 238 238 238 238 237 237 237 237 237 237 237 238 240 242 243 245 246 247 249 250 251 252 253 254 255 257 258 259 261 262 262 263 264 265 267 268 269 271 272 273 275 276 277 278 279 280 281 283 284 285 286 287 288 289 290 291 292 293 294 294 295 295 296 297 298 299 300 301 302 303
253 251 250 249 247 246 245 244 243 242 239 237 236 236 237 238 239 239 239 239 239 238 238 238 238 239 239 240 241 242 244 245 247 248 249 250 251 252 253 254 256 257 258 260 261 262 263 264 265 266 268 269 270 271 273 274 275 276 277 278 279 281 282 283 284 285 286 287 288 289 290 291 292 293 293 294 295 296 297 298 299 300 301 302 303
253 251 249 248 247 245 244 244 243 243 243 241 239 237 237 237 238 239 240 240 240 240 239 239 240 240 241 242 242 243 244 245 246 247 248 250 251 252 253 254 255 256 257 258 259 261 262 263 264 266 267 268 269 271 272 273 274 275 276 277 278 280 281 282 283 284 285 287 288 289 290 291 291 292 293 294 295 296 297 299 300 301 302 302 303
254 252 250 248 247 245 244 243 242 242 242 242 242 241 239 238 238 238 240 241 241 241 241 241 241 241 242 243 244 244 245 246 246 247 248 249 250 251 253 254 255 256 257 258 259 260 261 262 264 265 266 267 268 270 271 272 273 274 275 277 278 279 280 281 283 284 285 286 287 288 289 291 292 293 294 295 296 297 298 299 300 301 302 303 304
255 253 252 250 248 246 244 243 242 241 241 241 241 242 241 240 239 239 239 240 241 242 242 242 242 243 243 243 245 246 246 247 247 248 249 250 251 252 253 254 255 256 257 258 259 260 261 262 264 265 266 267 268 269 271 272 273 274 275 276 278 279 280 281 283 284 285 286 287 289 290 291 292 293 294 295 296 297 298 299 300 301 302 303 304
257 255 253 251 250 248 246 244 243 242 241 240 240 241 241 241 241 240 240 240 240 241 242 243 244 244 244 245 245 246 247 248 248 249 250 251 252 253 254 255 255 256 257 258 260 261 262 263 264 265 266 267 268 270 271 272 273 274 275 277 278 279 280 281 283 284 285 287 288 289 290 291 292 293 294 295 296 297 298 299 300 302 303 303 304
260 258 255 253 251 250 249 247 245 243 242 241 241 240 240 241 241 241 241 241 241 241 242 243 244 245 245 246 247 247 248 249 249 250 251 252 253 253 254 255 256 257 258 259 260 261 262 264 265 266 267 268 269 270 271 272 273 274 276 277 278 279 281 282 283 285 286 287 288 289 290 291 292 293 294 295 296 297 298 300 301 302 302 303 303
263 261 259 256 254 252 251 250 248 247 245 243 242 241 241 241 241 241 242 242 242 242 242 243 243 244 245 246 247 248 249 250 250 251 252 253 254 255 255 256 257 258 259 260 261 262 263 264 265 266 267 268 269 270 272 273 274 275 276 278 279 280 281 283 284 285 286 287 288 289 290 291 292 293 294 295 296 298 299 300 301 301 302 302 302
265 263 262 260 257 255 252 251 250 249 248 246 244 243 242 241 241 241 241 242 242 243 243 244 244 244 245 246 247 248 249 250 251 252 252 253 254 255 256 257 258 259 260 261 262 263 264 265 266 267 268 269 270 271 272 274 275 276 277 278 279 280 282 283 284 285 286 287 288 289 290 291 292 293 294 295 297 298 299 299 300 301 301 301 301
267 265 264 262 260 258 255 253 251 250 249 248 247 246 244 243 243 242 242 242 242 243 243 244 245 245 246 246 247 248 249 250 251 252 253 253 254 255 256 257 258 259 260 261 263 263 264 265 266 268 269 270 271 272 273 274 275 276 277 278 279 280 282 283 284 285 286 287 288 289 290 291 292 293 294 296 297 297 298 299 299 300 300 300 299
266 266 265 264 262 260 258 256 254 252 250 250 249 249 248 246 245 244 244 244 244 244 244 244 245 245 246 247 248 248 249 250 251 251 252 253 254 255 256 257 258 259 260 261 262 263 264 265 266 268 269 270 271 272 273 274 275 276 277 278 279 280 281 283 284 285 286 287 288 289 290 291 292 293 294 295 296 297 297 298 298 298 298 298 298
266 265 265 265 264 262 260 258 256 255 253 252 251 250 250 249 248 247 246 245 245 245 245 246 246 246 246 247 247 248 249 250 251 252 253 254 254 255 256 257 258 259 260 261 262 263 264 265 266 267 268 269 271 272 273 274 275 276 277 278 279 280 281 283 284 285 286 287 288 289 290 291 292 293 294 295 295 296 296 297 297 297 296 296 296
269 267 266 265 264 263 262 260 257 256 255 254 253 252 251 251 250 249 248 247 247 246 246 246 247 247 247 247 248 248 249 250 251 252 253 254 255 256 256 257 258 259 260 261 262 263 264 265 266 267 268 270 271 272 273 274 275 276 277 278 279 280 282 283 284 285 286 287 288 289 290 291 292 293 293 294 294 295 295 295 295 295 295 294 294
273 271 268 266 265 264 263 262 260 258 256 255 254 254 253 252 251 251 250 250 249 248 248 247 248 248 249 249 249 249 249 250 251 251 252 253 254 255 256 257 258 259 260 261 262 263 265 266 267 268 269 270 271 272 273 274 275 276 277 278 280 281 282 283 284 285 286 287 288 289 290 291 291 292 292 293 293 293 293 294 294 293 293 293 293
278 275 272 270 268 266 264 264 263 262 259 257 255 254 254 254 253 253 252 251 250 250 250 249 249 249 249 250 250 250 251 251 252 252 253 254 254 255 256 257 258 259 260 261 262 263 264 265 266 267 269 270 271 272 273 274 275 276 278 279 280 281 282 283 284 285 286 287 288 289 289 290 290 290 291 291 291 292 292 292 292 292 292 292 293
Height
10612 10614 10615 10617 10619 10620 10621 10623 10628 10636 10641 10640 10637 10639 10642 10643 10644 10644 10644 10644 10646 10650 10649 10646 10646 10648 10650 10652 10653 10655 10656 10657 10658 10659 10660 10660 10661 10663 10664 10665 10666 10666 10666 10666 10666 10666 10666 10665 10664 10663 10663 10662 10662 10662 10661 10659 10659 10658 10658 10657 10656 10656 10655 10653 10650 10647 10645 10645 10645 10643 10642 10641 10640 10639 10638 10636 10635 10634 10633 10632 10631 10631 10630 10629 10628
10605 10607 10608 10611 10613 10615 10618 10620 10625 10631 10634 10630 10629 10634 10637 10637 10638 10640 10641 10640 10640 10643 10643 10641 10641 10644 10645 10646 10648 10649 10651 10652 10653 10654 10655 10656 10657 10658 10659 10660 10661 10661 10661 10661 10661 10661 10661 10660 10659 10659 10658 10657 10657 10657 10656 10655 10654 10654 10654 10653 10652 10652 10651 10649 10646 10643 10641 10641 10641 10639 10638 10637 10636 10635 10634 10632 10631 10630 10629 10628 10628 10627 10626 10625 10624
10599 10602 10603 10605 10608 10611 10614 10617 10621 10625 10624 10622 10625 10628 10628 10629 10633 10635 10637 10637 10636 10638 10638 10636 10637 10639 10640 10641 10643 10644 10646 10647 10647 10649 10650 10651 10652 10653 10654 10655 10656 10656 10656 10656 10656 10656 10656 10655 10655 10654 10654 10653 10652 10652 10651 10650 10649 10649 10649 10648 10648 10648 10647 10645 10643 10640 10638 10637 10636 10635 10634 10633 10631 10630 10629 10629 10628 10627 10626 10625 10624 10623 10622 10621 10620
10594 10596 10598 10601 10604 10607 10611 10615 10618 10619 10618 10616 10619 10622 10622 10625 10629 10630 10632 10633 10633 10633 10632 10631 10632 10635 10636 10637 10639 10640 10641 10641 10642 10643 10644 10646 10647 10648 10649 10650 10650 10651 10651 10651 10651 10651 10651 10650 10650 10650 10650 10650 10648 10647 10647 10646 10645 10644 10643 10643 10643 10643 10643 10642 10640 10637 10635 10633 10632 10632 10631 10629 10628 10627 10626 10625 10624 10623 10622 10621 10620 10619 10618 10616 10615
10588 10591 10594 10597 10600 10604 10609 10612 10614 10615 10613 10612 10616 10619 10620 10623 10625 10626 10628 10629 10629 10629 10627 10626 10629 10631 10632 10634 10635 10635 10636 10636 10637 10638 10639 10640 10641 10643 10644 10645 10645 10645 10646 10646 10646 10646 10646 10645 10645 10646 10646 10646 10645 10643 10642 10641 10641 10640 10639 10638 10638 10638 10639 10638 10636 10635 10633 10630 10629 10628 10627 10626 10625 10624 10623 10622 10621 10620 10619 10617 10616 10615 10614 10613 10611
10583 10586 10590 10593 10596 10599 10603 10607 10610 10611 10610 10611 10616 10618 10619 10620 10622 10622 10623 10623 10624 10623 10621 10621 10625 10627 10628 10629 10629 10630 10632 10633 10633 10634 10634 10635 10636 10638 10639 10639 10639 10640 10640 10641 10641 10641 10641 10641 10641 10641 10641 10641 10641 10639 10638 10637 10636 10635 10634 10634 10633 10633 10634 10634 10633 10632 10631 10628 10626 10625 10623 10622 10621 10620 10619 10618 10617 10616 10615 10614 10613 10611 10610 10609 10607
10578 10582 10585 10589 10592 10595 10598 10602 10605 10606 10606 10609 10614 10615 10616 10618 10618 10618 10619 10619 10620 10618 10615 10616 10620 10622 10622 10623 10624 10625 10627 10629 10629 10630 10630 10631 10632 10633 10634 10634 10634 10635 10635 10636 10636 10636 10637 10637 10637 10637 10637 10637 10636 10635 10633 10632 10631 10631 10629 10629 10628 10628 10629 10630 10630 10628 10627 10626 10624 10622 10620 10618 10616 10615 10615 10614 10613 10611 10610 10610 10609 10607 10606 10604 10602
10574 10578 10582 10585 10588 10591 10593 10596 10600 10600 10601 10605 10609 10611 10612 10611 10611 10612 10613 10614 10614 10612 10610 10611 10614 10615 10616 10617 10618 10620 10621 10624 10625 10626 10626 10627 10628 10628 10629 10628 10629 10630 10630 10631 10631 10632 10632 10632 10632 10632 10632 10632 10632 10630 10629 10628 10627 10625 10624 10624 10624 10622 10623 10624 10624 10624 10622 10621 10620 10618 10616 10614 10613 10611 10610 10609 10609 10607 10606 10604 10604 10603 10601 10598 10596
10570 10574 10578 10582 10584 10586 10588 10591 10593 10595 10596 10598 10601 10603 10604 10603 10604 10605 10606 10607 10608 10607 10606 10607 10608 10608 10610 10611 10613 10615 10617 10618 10621 10622 10622 10623 10623 10624 10624 10624 10624 10625 10625 10625 10626 10626 10626 10626 10627 10627 10627 10627 10627 10626 10624 10624 10623 10621 10620 10619 10618 10617 10617 10617 10617 10617 10616 10615 10614 10613 10612 10610 10609 10607 10605 10604 10603 10602 10601 10599 10599 10598 10594 10591 10589
10566 10570 10574 10578 10580 10581 10583 10585 10588 10589 10589 10590 10592 10594 10595 10596 10598 10599 10599 10600 10602 10603 10602 10602 10601 10601 10604 10607 10609 10611 10613 10614 10616 10617 10617 10618 10619 10619 10619 10619 10619 10619 10619 10620 10621 10621 10620 10621 10622 10622 10622 10621 10621 10621 10620 10620 10619 10617 10616 10614 10613 10612 10612 10611 10610 10610 10609 10609 10608 10607 10606 10605 10604 10602 10600 10599 10597 10596 10595 10593 10592 10591 10588 10584 10581
10561 10565 10570 10573 10575 10577 10578 10580 10583 10584 10584 10585 10587 10588 10589 10590 10592 10593 10593 10593 10595 10598 10598 10597 10596 10596 10599 10604 10606 10607 10608 10609 10611 10612 10612 10613 10613 10613 10613 10614 10614 10614 10614 10614 10615 10615 10615 10616 10616 10616 10616 10615 10615 10615 10615 10614 10614 10613 10611 10610 10608 10608 10607 10606 10605 10604 10603 10602 10602 10601 10600 10599 10598 10597 10595 10594 10592 10590 10589 10587 10585 10584 10582 10578 10574
10556 10560 10564 10568 10571 10572 10573 10575 10578 10580 10580 10580 10582 10583 10585 10586 10588 10588 10587 10588 10590 10592 10592 10593 10592 10592 10594 10598 10600 10601 10603 10604 10606 10606 10607 10608 10607 10607 10607 10608 10608 10608 10608 10609 10609 10610 10610 10610 10610 10610 10610 10609 10610 10610 10609 10609 10608 10608 10606 10605 10604 10604 10603 10601 10600 10599 10598 10597 10596 10595 10594 10593 10592 10590 10589 10588 10587 10585 10583 10581 10578 10577 10575 10572 10567
10551 10554 10558 10562 10565 10567 10568 10570 10573 10575 10575 10576 10577 10579 10581 10583 10584 10583 10582 10583 10584 10585 10587 10588 10588 10588 10589 10591 10593 10595 10597 10599 10599 10600 10601 10602 10602 10601 10600 10601 10602 10602 10602 10603 10604 10604 10605 10604 10604 10604 10603 10603 10604 10604 10603 10602 10602 10602 10601 10599 10599 10598 10597 10596 10594 10593 10592 10591 10590 10588 10587 10586 10586 10584 10582 10581 10580 10578 10576 10574 10572 10570 10567 10564 10560
10546 10549 10553 10556 10559 10561 10562 10565 10568 10570 10571 10571 10573 10575 10578 10579 10580 10578 10577 10578 10578 10579 10582 10583 10583 10584 10584 10585 10587 10589 10591 10592 10593 10593 10594 10595 10596 10595 10594 10595 10595 10595 10596 10597 10597 10598 10598 10598 10598 10598 10597 10597 10597 10597 10597 10596 10596 10596 10595 10594 10592 10592 10591 10589 10588 10587 10585 10585 10583 10582 10580 10579 10579 10578 10575 10574 10572 10570 10568 10567 10565 10562 10559 10555 10551
10540 10544 10547 10550 10553 10555 10557 10559 10562 10564 10566 10567 10569 10571 10572 10573 10573 10573 10573 10573 10573 10573 10576 10578 10578 10579 10580 10580 10581 10583 10584 10586 10586 10586 10587 10588 10589 10589 10588 10588 10589 10589 10589 10590 10590 10591 10591 10591 10591 10591 10591 10591 10590 10591 10591 10590 10590 10589 10589 10588 10586 10585 10584 10582 10581 10580 10579 10579 10577 10575 10574 10573 10571 10570 10568 10566 10564 10562 10560 10559 10557 10554 10551 10546 10542
10534 10538 10541 10545 10548 10550 10552 10554 10557 10559 10561 10563 10564 10566 10567 10567 10568 10568 10568 10568 10567 10567 10570 10571 10572 10574 10574 10574 10575 10576 10577 10579 10580 10580 10580 10581 10582 10582 10581 10581 10582 10583 10583 10582 10583 10584 10584 10584 10584 10584 10584 10584 10584 10584 10584 10584 10584 10583 10582 10581 10580 10578 10577 10575 10575 10574 10573 10573 10572 10569 10567 10566 10564 10563 10561 10559 10557 10555 10552 10551 10548 10545 10541 10538 10534
10528 10531 10534 10538 10542 10545 10547 10549 10552 10555 10557 10558 10559 10561 10562 10562 10563 10563 10563 10563 10563 10563 10563 10564 10565 10567 10568 10568 10569 10570 10570 10571 10573 10574 10573 10573 10574 10575 10574 10574 10575 10576 10576 10575 10576 10577 10578 10577 10578 10578 10578 10578 10577 10577 10577 10577 10577 10576 10575 10574 10572 10571 10569 10568 10568 10567 10566 10565 10565 10563 10561 10560 10558 10556 10553 10551 10549 10547 10544 10542 10539 10536 10533 10530 10527
10521 10525 10528 10531 10535 10538 10541 10544 10547 10549 10551 10552 10553 10555 10556 10556 10557 10557 10556 10557 10559 10557 10557 10558 10559 10560 10560 10561 10562 10563 10563 10564 10566 10567 10566 10565 10566 10567 10567 10568 10568 10568 10568 10568 10568 10569 10571 10571 10570 10570 10570 10571 10570 10570 10569 10569 10569 10568 10567 10566 10565 10564 10562 10561 10560 10560 10559 10557 10556 10555 10554 10553 10551 10549 10547 10545 10543 10540 10537 10534 10530 10527 10525 10523 10520
10514 10517 10521 10524 10528 10532 10535 10538 10541 10543 10544 10545 10546 10548 10550 10551 10551 10550 10549 10551 10552 10551 10551 10552 10553 10553 10553 10553 10554 10555 10556 10556 10558 10559 10559 10558 10558 10558 10559 10561 10561 10560 10560 10560 10560 10561 10563 10563 10563 10562 10563 10563 10563 10562 10561 10561 10561 10560 10560 10559 10558 10556 10555 10554 10552 10552 10551 10549 10548 10547 10546 10544 10543 10541 10540 10538 10536 10533 10529 10525 10522 10519 10517 10515 10513
10506 10509 10513 10517 10520 10524 10528 10531 10535 10536 10537 10538 10540 10542 10544 10544 10544 10544 10545 10545 10546 10545 10545 10546 10546 10547 10546 10545 10545 10547 10547 10548 10549 10550 10550 10549 10550 10550 10550 10552 10553 10553 10552 10553 10553 10553 10554 10554 10554 10555 10555 10555 10555 10554 10554 10553 10553 10552 10551 10550 10549 10548 10547 10546 10544 10543 10542 10541 10540 10539 10537 10535 10534 10533 10532 10530 10527 10523 10519 10516 10514 10511 10509 10507 10504
10498 10502 10505 10508 10512 10516 10519 10524 10527 10529 10529 10530 10534 10536 10536 10536 10537 10538 10539 10539 10539 10539 10539 10538 10539 10540 10540 10538 10537 10538 10539 10539 10540 10541 10541 10540 10541 10541 10541 10542 10543 10544 10544 10544 10544 10544 10544 10544 10544 10546 10547 10547 10547 10546 10546 10545 10545 10544 10543 10542 10541 10539 10538 10537 10536 10534 10533 10532 10531 10530 10528 10527 10525 10524 10522 10519 10515 10512 10510 10507 10506 10504 10501 10498 10495
10490 10493 10496 10499 10503 10507 10511 10515 10519 10521 10522 10523 10527 10528 10527 10528 10530 10531 10532 10533 10532 10531 10531 10531 10530 10531 10531 10531 10530 10530 10531 10531 10531 10532 10532 10533 10532 10532 10531 10531 10532 10533 10533 10534 10534 10534 10534 10533 10534 10535 10537 10538 10538 10538 10537 10537 10536 10535 10535 10533 10532 10531 10529 10528 10527 10526 10524 10523 10521 10520 10519 10517 10516 10513 10510 10506 10504 10502 10500 10499 10497 10494 10492 10488 10484
10480 10484 10487 10489 10493 10497 10501 10505 10509 10513 10514 10515 10517 10519 10520 10521 10522 10523 10523 10524 10524 10523 10523 10523 10522 10521 10522 10522 10522 10522 10524 10524 10524 10524 10524 10525 10524 10524 10524 10523 10523 10523 10523 10523 10524 10524 10523 10523 10523 10524 10526 10527 10528 10528 10528 10528 10527 10526 10525 10524 10523 10522 10521 10520 10519 10517 10515 10513 10511 10509 10507 10505 10503 10500 10497 10495 10494 10492 10491 10488 10486 10482 10479 10476 10472
10470 10474 10477 10480 10482 10486 10491 10495 10499 10503 10505 10505 10507 10509 10510 10511 10511 10511 10511 10512 10513 10514 10514 10513 10513 10513 10514 10514 10514 10515 10516 10517 10517 10517 10516 10516 10516 10516 10517 10516 10515 10515 10514 10514 10515 10515 10514 10514 10514 10514 10514 10515 10517 10517 10517 10518 10517 10517 10516 10515 10514 10513 10512 10511 10510 10508 10506 10504 10501 10499 10496 10493 10490 10488 10486 10485 10483 10482 10479 10477 10474 10471 10467 10463 10459
10461 10464 10468 10471 10473 10476 10480 10484 10488 10492 10494 10495 10495 10496 10496 10496 10496 10497 10498 10500 10502 10503 10503 10504 10505 10506 10507 10506 10505 10506 10508 10509 10508 10508 10507 10507 10508 10508 10508 10508 10507 10507 10506 10507 10507 10507 10506 10505 10505 10505 10505 10506 10507 10508 10508 10508 10508 10508 10507 10506 10505 10504 10503 10502 10500 10498 10496 10493 10490 10487 10485 10482 10481 10479 10477 10474 10472 10471 10468 10465 10462 10459 10456 10452 10447
10452 10454 10458 10461 10464 10466 10470 10474 10477 10481 10483 10484 10484 10483 10484 10485 10486 10488 10489 10489 10490 10491 10492 10493 10495 10497 10498 10497 10496 10496 10499 10500 10500 10499 10498 10499 10499 10499 10499 10499 10499 10499 10498 10497 10497 10497 10497 10496 10496 10496 10496 10497 10498 10499 10499 10499 10499 10499 10498 10496 10496 10495 10493 10492 10489 10487 10485 10482 10480 10478 10476 10474 10472 10469 10467 10464 10462 10460 10458 10455 10451 10448 10445 10442 10437
10443 10445 10448 10451 10455 10457 10460 10464 10467 10470 10472 10473 10473 10473 10474 10476 10478 10480 10480 10481 10481 10481 10482 10483 10486 10488 10488 10488 10487 10488 10489 10490 10490 10490 10490 10489 10489 10489 10489 10489 10490 10490 10490 10488 10487 10486 10486 10486 10486 10486 10485 10485 10485 10486 10487 10487 10487 10486 10486 10485 10484 10483 10482 10480 10478 10476 10475 10473 10471 10469 10466 10464 10462 10460 10457 10455 10452 10450 10447 10445 10441 10437 10433 10430 10425
10434 10436 10439 10442 10445 10448 10451 10454 10456 10459 10461 10462 10463 10463 10464 10466 10469 10471 10472 10472 10473 10473 10474 10476 10479 10481 10481 10480 10479 10479 10480 10481 10481 10481 10481 10481 10481 10481 10480 10480 10479 10480 10480 10480 10478 10477 10477 10477 10477 10476 10475 10474 10473 10473 10473 10473 10473 10473 10473 10473 10472 10471 10470 10469 10467 10466 10464 10463 10461 10459 10457 10455 10453 10450 10448 10445 10443 10440 10437 10434 10431 10427 10423 10419 10415
10424 10427 10429 10432 10435 10438 10441 10444 10446 10448 10450 10451 10453 10454 10455 10456 10459 10461 10462 10463 10464 10465 10466 10468 10471 10474 10474 10473 10472 10472 10473 10474 10474 10473 10473 10473 10473 10473 10472 10472 10471 10470 10470 10470 10470 10470 10469 10469 10469 10468 10467 10465 10464 10464 10464 10463 10462 10462 10461 10461 10460 10460 10459 10458 10457 10455 10454 10452 10451 10449 10447 10445 10442 10440 10438 10435 10432 10429 10426 10423 10420 10416 10412 10408 10404
10414 10417 10419 10421 10424 10428 10431 10434 10436 10437 10439 10441 10442 10444 10445 10447 10448 10450 10452 10453 10454 10455 10457 10459 10462 10465 10466 10465 10464 10464 10465 10466 10465 10465 10465 10464 10464 10464 10464 10463 10463 10462 10461 10461 10462 10462 10461 10461 10460 10459 10458 10457 10457 10456 10456 10455 10454 10453 10452 10451 10451 10450 10449 10448 10447 10445 10444 10442 10440 10438 10436 10434 10432 10429 10427 10424 10421 10419 10416 10412 10409 10405 10401 10397 10392
10404 10406 10408 10411 10414 10417 10421 10423 10425 10427 10429 10430 10432 10433 10435 10436 10438 10440 10441 10443 10445 10446 10447 10450 10452 10454 10455 10456 10455 10455 10455 10456 10456 10457 10456 10456 10456 10455 10455 10455 10455 10454 10454 10454 10454 10454 10453 10452 10451 10451 10450 10449 10449 10448 10448 10447 10446 10445 10444 10443 10442 10441 10440 10439 10437 10436 10434 10432 10430 10428 10426 10424 10421 10419 10416 10414 10411 10408 10405 10402 10398 10394 10390 10386 10381
10394 10395 10397 10400 10403 10406 10409 10412 10414 10416 10418 10420 10421 10423 10424 10426 10428 10429 10431 10433 10435 10436 10438 10441 10442 10443 10444 10445 10445 10445 10446 10447 10447 10447 10448 10447 10447 10447 10447 10446 10446 10446 10445 10445 10445 10445 10444 10444 10443 10442 10442 10441 10440 10439 10439 10438 10437 10435 10434 10433 10432 10430 10429 10428 10427 10425 10424 10422 10420 10417 10415 10413 10411 10408 10405 10403 10400 10397 10393 10390 10387 10383 10379 10375 10370
10383 10385 10387 10389 10392 10394 10397 10400 10403 10405 10407 10409 10410 10412 10413 10415 10417 10419 10421 10422 10424 10426 10429 10431 10432 10432 10431 10432 10434 10436 10437 10437 10437 10437 10438 10438 10438 10438 10438 10438 10437 10436 10435 10435 10434 10434 10434 10434 10433 10432 10431 10430 10429 10429 10428 10427 10426 10425 10424 10423 10421 10420 10419 10417 10416 10414 10413 10411 10409 10407 10405 10402 10400 10397 10394 10391 10388 10385 10381 10378 10375 10371 10368 10364 10358
10372 10374 10376 10379 10381 10382 10385 10388 10391 10393 10395 10397 10398 10400 10402 10403 10406 10408 10411 10412 10415 10417 10419 10420 10422 10421 10420 10420 10422 10425 10426 10427 10427 10428 10429 10429 10429 10429 10429 10428 10428 10427 10426 10425 10424 10424 10424 10423 10422 10420 10419 10418 10418 10417 10416 10416 10415 10414 10413 10412 10410 10409 10408 10406 10405 10403 10402 10400 10398 10395 10393 10390 10388 10385 10382 10379 10376 10372 10369 10365 10361 10358 10354 10350 10346
10362 10364 10366 10369 10371 10372 10374 10376 10379 10380 10382 10385 10387 10389 10391 10393 10395 10398 10400 10402 10404 10406 10408 10409 10410 10410 10410 10410 10410 10412 10414 10416 10417 10418 10418 10419 10420 10420 10419 10419 10418 10417 10417 10416 10416 10415 10414 10412 10411 10409 10408 10408 10407 10406 10405 10405 10404 10403 10402 10401 10399 10398 10397 10395 10394 10392 10390 10388 10385 10383 10380 10378 10375 10372 10369 10366 10363 10359 10356 10352 10348 10344 10340 10336 10332
10351 10353 10355 10358 10360 10362 10362 10364 10367 10369 10371 10373 10376 10378 10380 10383 10385 10387 10389 10391 10393 10395 10397 10398 10399 10399 10399 10399 10399 10401 10402 10404 10405 10406 10408 10409 10410 10410 10409 10408 10407 10406 10406 10407 10407 10406 10405 10402 10401 10400 10399 10398 10397 10396 10396 10395 10394 10393 10391 10390 10388 10387 10385 10384 10382 10380 10378 10376 10373 10370 10368 10365 10363 10360 10357 10354 10350 10347 10343 10339 10335 10331 10326 10322 10318
10338 10340 10342 10344 10347 10350 10350 10352 10355 10358 10360 10362 10364 10367 10369 10371 10373 10375 10376 10378 10380 10383 10385 10386 10387 10387 10388 10388 10388 10389 10390 10392 10393 10394 10396 10398 10398 10398 10398 10397 10396 10396 10396 10396 10396 10396 10394 10392 10391 10390 10389 10388 10387 10387 10386 10385 10383 10382 10380 10379 10377 10376 10374 10372 10371 10369 10366 10364 10361 10359 10356 10354 10351 10348 10345 10342 10339 10335 10331 10327 10323 10319 10314 10310 10305
10324 10326 10327 10329 10332 10335 10337 10339 10342 10345 10347 10350 10352 10355 10357 10359 10360 10362 10364 10366 10368 10370 10373 10374 10375 10375 10376 10376 10377 10378 10379 10380 10381 10383 10385 10386 10386 10386 10385 10386 10386 10385 10385 10385 10385 10384 10383 10381 10381 10380 10379 10378 10377 10376 10375 10374 10373 10371 10370 10368 10366 10365 10363 10361 10359 10357 10355 10352 10350 10347 10345 10342 10340 10337 10334 10330 10326 10323 10319 10314 10310 10306 10301 10297 10292
10310 10311 10313 10314 10317 10320 10323 10326 10329 10332 10334 10337 10340 10343 10346 10348 10348 10349 10351 10353 10355 10357 10359 10361 10363 10364 10364 10364 10365 10366 10367 10368 10370 10373 10374 10374 10374 10373 10374 10374 10375 10374 10374 10374 10373 10372 10371 10371 10370 10370 10369 10368 10367 10365 10364 10363 10361 10360 10359 10357 10356 10354 10352 10350 10348 10346 10344 10341 10338 10336 10334 10331 10328 10325 10322 10318 10314 10310 10306 10301 10297 10292 10288 10283 10278
10297 10298 10299 10301 10303 10306 10309 10312 10315 10318 10321 10324 10326 10329 10332 10334 10336 10336 10338 10340 10342 10344 10346 10348 10350 10352 10353 10353 10352 10353 10355 10358 10360 10362 10363 10362 10361 10361 10362 10363 10363 10362 10362 10362 10361 10361 10360 10360 10359 10359 10358 10357 10355 10354 10353 10351 10350 10349 10348 10346 10345 10343 10341 10339 10337 10335 10332 10330 10327 10325 10322 10319 10316 10313 10309 10305 10301 10297 10293 10288 10283 10279 10274 10269 10264
10286 10286 10286 10287 10290 10292 10295 10298 10301 10304 10307 10309 10311 10314 10316 10319 10322 10324 10325 10327 10328 10330 10332 10335 10337 10339 10341 10341 10340 10340 10342 10346 10349 10351 10351 10349 10349 10349 10350 10350 10351 10350 10350 10350 10349 10349 10349 10348 10348 10347 10346 10345 10344 10343 10341 10340 10339 10338 10336 10335 10333 10332 10329 10327 10325 10323 10321 10318 10316 10313 10310 10307 10304 10300 10296 10292 10288 10284 10280 10275 10270 10266 10262 10257 10251
10274 10274 10274 10275 10277 10280 10282 10284 10287 10290 10293 10295 10297 10299 10301 10304 10307 10310 10312 10314 10315 10317 10319 10321 10324 10326 10328 10328 10328 10328 10329 10333 10337 10339 10338 10336 10336 10337 10338 10338 10339 10339 10338 10338 10337 10337 10337 10337 10336 10335 10334 10333 10332 10331 10330 10329 10328 10326 10325 10324 10322 10320 10318 10316 10314 10311 10309 10306 10303 10301 10298 10294 10291 10287 10283 10280 10275 10271 10267 10262 10258 10254 10250 10244 10239
10263 10263 10263 10264 10266 10268 10270 10272 10274 10277 10279 10281 10283 10285 10287 10289 10292 10295 10297 10300 10302 10303 10305 10308 10310 10312 10314 10315 10316 10317 10317 10319 10323 10325 10325 10324 10324 10325 10326 10326 10326 10326 10326 10325 10325 10325 10325 10325 10324 10323 10322 10321 10320 10319 10318 10317 10316 10315 10313 10312 10310 10308 10306 10304 10302 10299 10297 10294 10291 10288 10285 10282 10278 10274 10270 10267 10263 10259 10255 10250 10246 10243 10238 10233 10227
10252 10252 10252 10254 10256 10257 10258 10260 10262 10263 10265 10268 10270 10272 10274 10276 10278 10280 10283 10285 10287 10289 10292 10295 10298 10299 10300 10301 10303 10305 10305 10306 10308 10311 10312 10311 10311 10312 10312 10313 10313 10313 10313 10313 10313 10313 10313 10312 10311 10310 10309 10308 10308 10307 10306 10305 10304 10303 10302 10300 10298 10296 10294 10292 10290 10287 10285 10282 10279 10276 10273 10269 10266 10262 10258 10254 10251 10247 10243 10239 10235 10231 10226 10221 10216
10242 10242 10242 10243 10245 10246 10247 10248 10250 10251 10252 10254 10256 10258 10260 10262 10264 10266 10268 10270 10272 10274 10277 10280 10283 10286 10287 10288 10290 10293 10293 10293 10295 10297 10298 10298 10298 10298 10299 10300 10300 10300 10300 10300 10300 10300 10299 10299 10298 10297 10296 10295 10295 10294 10293 10292 10291 10290 10289 10288 10286 10284 10282 10280 10278 10275 10273 10270 10267 10264 10260 10257 10253 10249 10246 10242 10239 10235 10231 10227 10223 10219 10215 10210 10206
10232 10232 10232 10233 10233 10234 10235 10237 10238 10238 10238 10240 10241 10243 10245 10248 10251 10253 10255 10257 10259 10260 10262 10265 10268 10271 10274 10276 10278 10280 10281 10281 10282 10284 10285 10286 10286 10286 10286 10286 10287 10287 10287 10287 10287 10286 10286 10285 10285 10284 10283 10282 10282 10281 10280 10279 10278 10277 10277 10275 10273 10271 10269 10267 10265 10263 10260 10258 10255 10251 10248 10245 10241 10238 10234 10231 10227 10223 10220 10216 10212 10208 10204 10200 10196
10223 10222 10222 10222 10222 10223 10224 10225 10225 10225 10226 10227 10228 10230 10233 10236 10238 10241 10243 10245 10247 10248 10250 10252 10254 10257 10260 10263 10265 10267 10267 10268 10269 10271 10272 10274 10275 10275 10274 10274 10274 10274 10274 10274 10273 10273 10273 10273 10272 10271 10271 10270 10269 10268 10267 10266 10266 10264 10263 10262 10261 10259 10257 10255 10253 10251 10248 10245 10242 10239 10236 10232 10229 10226 10223 10219 10216 10212 10209 10205 10202 10198 10194 10190 10186
10215 10214 10213 10212 10212 10212 10213 10214 10214 10214 10214 10215 10217 10220 10222 10223 10225 10228 10230 10233 10235 10236 10238 10239 10241 10243 10246 10249 10252 10253 10253 10254 10255 10257 10259 10261 10262 10262 10262 10262 10262 10262 10262 10261 10261 10260 10260 10260 10259 10259 10258 10258 10257 10256 10255 10254 10253 10252 10251 10249 10248 10246 10245 10243 10241 10239 10236 10233 10230 10227 10224 10221 10217 10214 10211 10208 10204 10201 10198 10195 10191 10188 10184 10181 10177
10207 10206 10205 10204 10202 10202 10202 10203 10203 10204 10204 10205 10207 10209 10210 10211 10212 10214 10217 10219 10221 10223 10225 10227 10228 10229 10232 10235 10238 10240 10240 10240 10242 10244 10245 10245 10247 10248 10248 10249 10249 10249 10249 10249 10248 10248 10248 10247 10247 10246 10246 10245 10244 10244 10243 10241 10240 10239 10238 10237 10236 10235 10233 10231 10229 10227 10224 10221 10218 10215 10212 10209 10206 10202 10199 10196 10194 10191 10187 10184 10182 10179 10175 10172 10169
10199 10198 10197 10195 10194 10192 10191 10191 10192 10193 10195 10196 10197 10198 10199 10200 10201 10203 10205 10206 10208 10210 10212 10214 10215 10217 10219 10221 10224 10226 10227 10227 10229 10230 10230 10231 10232 10233 10234 10235 10235 10235 10235 10235 10235 10235 10234 10234 10234 10233 10233 10232 10232 10231 10229 10228 10227 10227 10226 10225 10224 10223 10221 10219 10217 10215 10212 10209 10206 10203 10200 10197 10194 10191 10188 10186 10183 10181 10178 10175 10172 10169 10167 10164 10161
10190 10189 10188 10187 10185 10184 10183 10182 10182 10183 10185 10186 10188 10189 10189 10190 10191 10192 10193 10195 10196 10198 10199 10201 10203 10204 10206 10208 10210 10211 10213 10214 10215 10216 10217 10218 10219 10220 10220 10221 10222 10222 10222 10222 10222 10222 10222 10221 10221 10221 10220 10220 10219 10218 10217 10216 10215 10215 10214 10213 10212 10211 10209 10207 10205 10203 10200 10197 10194 10191 10189 10186 10183 10181 10178 10176 10173 10171 10168 10165 10163 10160 10158 10156 10153